Location: Newark
(48.0000°N, 67.0000°E)
Time: 01:02:06
(UTC+00:00)

Vanguard 2 - Pass Details

Date: 23 February 2020
Orbit: 552 x 2938 km, 32.9° (Epoch: 06 April)

Event Time Altitude Azimuth Distance (km) Brightness Sun altitude
Exits shadow 21:09:36 20° 119° (ESE) 3,817 11.0 -47.9°
Drops below altitude 10° 21:14:53 10° 101° (E) 4,994 11.8 -47.4°
Sets 21:20:27 0° 91° (E) 6,354 12.5 -46.9°
